x

Buoy I01 - Eastern Maine Shelf (44034) Wave Buoy

2:04 - Thu 23rd Feb 2017 All times are EST. -5 hours from GMT.

  • Sig Wave height 3.9ft
  • Peak Period 5s
  • Wind
    13mph, 18mph gusts
  • Sea Temp 40°f
  • Air Temp 40°f
  • Sea Pressure 1008.5mb
  • Buoy I01 - Eastern Maine Shelf
  • Buoy I01 - Eastern Maine Shelf

More Historic Weather Station data

Upgrade to MSW Pro to gain access to the past 30 days of data for over 8000 Wavebouys and Weather Stations around the globe.

Join Pro

Comparision Forecast

View Surf forecast
   
jeu. 02/23 2:04 4ft 5s 13 18 mph 1008.5mb 40f 40f
1:04 3.5ft 5s 18 20 mph 1008.7mb 40f 40f
12:04 3ft 5s 16 18 mph 1009.6mb 40f 40f
11:04 4ft 8s 20 25 mph 1009.9mb 40f 39f
10:04 2ft 3s 13 18 mph 1010.5mb 40f 40f
9:04 3.5ft 11s 13 16 mph 1011.2mb 40f 41f
8:04 0.7ft  -  13 16 mph 1011.2mb 40f 41f
7:04 2.5ft 11s 9 11 mph 1011.2mb 40f 40f
6:04 2.5ft 11s 9 11 mph 1011mb 40f 40f
5:04 2.5ft 11s 7
mph
1011.1mb 40f 41f
mer. 02/22 5:04 4ft 5s 16 18 mph 1016.4mb 40f 40f
4:04 3.5ft 5s 18 20 mph 1016.5mb 40f 40f
3:04 3ft 5s 16 18 mph 1016.8mb 40f 39f
2:04 3ft 4s 16 18 mph 1017.9mb 40f 39f
1:04 2.5ft 4s 16 18 mph 1018.9mb 40f 38f
12:04 2.5ft 4s 16 20 mph 1019.2mb 40f 38f
mar. 02/21 11:04 1.6ft 3s 16 18 mph 1019.7mb 40f 36f
10:04 1.6ft 3s 16 18 mph 1020.5mb 40f 36f
9:04 1.3ft 3s 13 16 mph 1021mb 40f 35f
8:04 1.3ft 5s 11 13 mph 1021.6mb 40f 34f
7:04 1.3ft 5s 9 11 mph 1022.5mb 40f 33f
6:04 1.3ft 5s 7 11 mph 1022.9mb 41f 32f
5:04 1.3ft 5s 7 9 mph 1023.5mb 41f 31f
4:04 1.3ft 5s 4 9 mph 1024.5mb 41f 31f
3:04 1.6ft 5s 4 7 mph 1024.4mb 41f 32f
2:04 1.6ft 5s 2 4 mph 1025.2mb 41f 32f
1:04 1.6ft 4s 2 4 mph 1025.6mb 41f 31f
12:04 1.6ft 5s 4 7 mph 1026.6mb 40f 30f
11:04 2.5ft 4s 7 11 mph 1027.1mb 40f 29f
10:04 2.5ft 4s 7 9 mph 1027.9mb 40f 28f
9:04 2.5ft 5s 13 16 mph 1027.5mb 40f 28f
8:04 3ft 5s 16 18 mph 1027.8mb 40f 28f
7:04 3.5ft 5s 18 22 mph 1027.5mb 40f 28f
6:04 3.5ft 4s 16 20 mph 1027.1mb 40f 28f
5:04 3.5ft 4s 18 22 mph 1026.6mb 40f 28f
4:04 3.5ft 5s 20 25 mph 1026.5mb 40f 29f
3:04 3.5ft 5s 20 25 mph 1026.4mb 40f 30f
2:04 4ft 5s 25 29 mph 1026.6mb 40f 31f
1:04 3.5ft 4s 22 29 mph 1026.4mb 40f 32f
12:04 4ft 4s 22 27 mph 1025.8mb 40f 33f
lun. 02/20 11:04 3.5ft 4s 20 27 mph 1025.4mb 40f 35f
10:04 3ft 4s 20 25 mph 1024.8mb 40f 36f
9:04 3ft 3s 22 29 mph 1024.4mb 40f 37f
8:04 2ft 3s 18 22 mph 1023.5mb 40f 38f
7:04 2.5ft 4s 18 22 mph 1023.2mb 41f 39f
6:04 3ft 4s 18 22 mph 1022.5mb 41f 39f
5:04 2.5ft 4s 18 20 mph 1021.6mb 41f 40f
4:04 2.5ft 4s 18 22 mph 1020.5mb 41f 40f
3:04 2.5ft 4s 18 20 mph 1019.3mb 41f 39f
2:04 3.5ft 4s 18 20 mph 1018.3mb 41f 38f
1:04 3.5ft 4s 20 25 mph 1018mb 41f 38f
12:04 3.5ft 4s 20 25 mph 1017.8mb 41f 37f
11:04 3ft 4s 20 25 mph 1018mb 41f 36f
10:04 3ft 4s 22 27 mph 1017.8mb 41f 35f
9:04 3ft 4s 22 27 mph 1017.5mb 41f 35f
8:04 2.5ft 4s 20 25 mph 1016.8mb 41f 35f
7:04 2.5ft 4s 20 22 mph 1016.1mb 41f 35f
6:04 3.5ft 8s 20 22 mph 1014.6mb 41f 35f
5:04 2.5ft 4s 18 22 mph 1013.7mb 41f 36f
4:04 3.5ft 4s 22 25 mph 1012.8mb 41f 36f
3:04 3.5ft 8s 20 27 mph 1011.8mb 41f 37f
2:04 3ft 8s 18 22 mph 1011.3mb 41f 38f
1:04 2.5ft 6s 13 18 mph 1010.8mb 41f 38f
12:04 3.5ft 6s 16 22 mph 1010mb 41f 41f
dim. 02/19 11:04 3ft 8s 16 20 mph 1009.5mb 41f 41f
10:04 2.5ft 8s 16 18 mph 1008.8mb 40f 42f